Voltar ao catálogo

STARLINK-4178

AtivoComunicaçõesVLEO
NORAD 53277·PAYLOAD·🇺🇸 United States

Lançado Jul 24, 2022 de Cape Canaveral Space Force Station

Loading…

Próximas Passagens (próximas 24 horas)

TLE

AtualizadoSource: CelesTrak SupGP

Época: Sep 15, 2026, 01:42 UTC

1 53277C 22086AM  26258.07131944 -.00036018  00000+0 -11586-2 0  2584
2 53277  53.1593  41.6352 0001120  83.5334 220.9129 15.31710126    16

Acompanhe STARLINK-4178 em tempo real com AllMySat

Download on the App Store